FREGAT R/B, 40083

Orbit data source: Space-Track

FREGAT R/B, 40083 is space debris originally from a launch on Thu, 10 Jul 2014 UTC launched from the French Guiana (FRGUI). Debris objects in space refer to the collection of defunct objects orbiting the Earth. Examples of debris include non-operational satellites, rocket bodies, and fragments generated from explosions, collisions, or faulty payload assembly.

Loading next visibility...
Identifier
40083, 2014-038E
Orbit
Active
Country
Flag of CISCIS
Related business
Manufacturer
Lavochkin
Mission
Spacecraft
Bus & Motor
FREGAT, Unknown motor
Mass
1,050 kg wet, 1,050 kg dry
Launch date (UTC)
2014-07-10 (11 years ago)
Launch vehicle
Unknown
Launch site
French Guiana (FRGUI)
Object type
Payload
Rocket body
Debris
Shape & HBR
Irr, 1.6 m
Radar Cross Section
11.055 m², Large (>1 m²)

Expand to show TLE details & history
Last TLE update: 1 day ago

TLE from 1 day ago
0 FREGAT R/B
1 40083U 14038E   25293.33933503 -.00000021  00000-0  00000-0 0  9995
2 40083   0.1269  56.7481 0012232 153.5273 149.6591  5.21123468214736
Epoch: 2025-10-20T08:08Z
TLE epoch observation values (Epoch: 2025-10-20T08:08:38.546Z)
Latitude
-0.10287°
Longitude
-151.20358°
Altitude
7,688.355 km
Speed
5.321 km/s
True Right ascension
00h 00m 00s
True Declination
0° 06' 09"
Sunlit
Object was in partial shadow at epoch
Visualization orbit readout
Latitude
Unknown
Longitude
Unknown
Altitude
Unknown
Speed
Unknown
Apparent Right ascension
Unknown
Apparent Declination
Unknown
Sunlit
N/A
Visualization observer readout
Local Sidereal Time
11:16:09
Azimuth
Unknown
Elevation
Unknown
Doppler factor
Unknown
Orbital elements
Apogee altitude
7,695.384 km
Perigee altitude
7,660.997 km
Semi-major axis
14,056.328 km
Eccentricity
0.00122
Inclination
0.1269°
RAAN
56.7481°
Arg. of periapsis
153.5273°
True anomaly
149.72981°
Mean anomaly
149.6591°
Eccentric anomaly
149.69447°
Mean motion
1.30237 °/min
Orbital period
276.42 mins
BSTAR
0
Loading maneuver chart data...
Computing Atmospheric mass density...
Loading historical data...
Loading historical data...
Loading historical data...
Loading historical data...
Loading historical data...
Loading historical data...
Loading historical data...
Other satellites on launch #38 in the year 2014 (2014-07-10 UTC)

Documentation

Showing up to 5 results
|